Content
SEND FEEDBACK

Daily
Averages
Monthly
Summary
Sweden

JONKOPING, SWEDEN


Home > Europe > Sweden
Elevation: 325 feet     Latitude: 57 46N     Longitude: 014 11E

WEATHER
 
SELECT A DAY
Number of Records: 272,050;   Date Range: 1/10/97 - 12/22/14
 
SHARE

PRINT THIS DATA

[ ← Previous Day ]
WEATHER ALMANAC - JANUARY 3, 2013
[ Next Day → ]
[ °C ]   °F
Weather ElementAverageHighLow
Temperature38.6 °F43 °F (1:00 pm)33 °F (7:00 am)
Dewpoint36.3 °F42.8 °F (12:20 pm)33 °F (7:00 am)
Humidity90.5 %100 % (4:50 am)72 % (6:00 pm)
Barometer29.71 in29.89 in (11:00 pm)29.59 in (10:20 am)
Wind Speed13.7 mph20.1 mph (3:00 pm)
Wind Gust34.5 mph (3:50 pm)
Weather ElementAverage
Visibility9.1 mi
Wind DirectionWSW (250.8 °)

Weather ElementTotal
Precipitation---
Heating Degree Days27 (Base 65)
Averaged from 66 records on January 3, 2013
WEATHER CONDITIONS BREAKOUT
WIND DIRECTION BREAKOUT
WEATHER BY HOUR - JANUARY 3, 2013
[ °C ]   °F
Local TimeTemperatureDewpointHumidityBarometerVisibilityWind DirectionWind SpeedGust SpeedPrecipitationEventsConditions
12:20 AM35.6 °F33.8 °F93 %29.80 in6.2 miWSW (240°)13.8 mphOvercast
12:50 AM37.4 °F35.6 °F93 %29.80 in6.2 miWSW (250°)13.8 mphOvercast
1:00 AM37.0 °F35.0 °F89 %29.84 in19.0 miWSW (250°)13.4 mphOvercast
1:20 AM37.4 °F35.6 °F93 %29.80 in6.2 miWSW (250°)11.5 mphOvercast
1:50 AM37.4 °F35.6 °F93 %29.80 in6.2 miWSW (240°)11.5 mphOvercast
2:00 AM37.0 °F35.0 °F90 %29.83 in18.0 miWSW (250°)11.2 mphMostly Cloudy
2:20 AM37.4 °F35.6 °F93 %29.80 in6.2 miWSW (240°)11.5 mphOvercast
2:50 AM37.4 °F35.6 °F93 %29.77 in6.2 miWSW (250°)13.8 mphOvercast
3:00 AM37.0 °F36.0 °F94 %29.81 in10.0 miWSW (250°)13.4 mphOvercast
3:20 AM37.4 °F35.6 °F93 %29.77 in6.2 miWSW (240°)13.8 mphOvercast
3:50 AM37.4 °F35.6 °F93 %29.74 in6.2 miSW (230°)13.8 mphOvercast
4:20 AM37.4 °F35.6 °F93 %29.74 in6.2 miWSW (240°)12.7 mphOvercast
4:50 AM35.6 °F35.6 °F100 %29.74 in6.2 miSW (230°)11.5 mphDrizzle
5:00 AM36.0 °F35.0 °F97 %29.77 in6.0 miSW (230°)15.7 mphRainLight Rain
5:20 AM35.6 °F33.8 °F93 %29.71 in4.3 miSW (220°)11.5 mphRainLight Rain
5:50 AM33.8 °F33.8 °F100 %29.71 in2.2 miSW (220°)10.4 mphSnowLight Snow
6:20 AM33.8 °F33.8 °F100 %29.68 in3.7 miSSW (210°)8.1 mphLight Ice Pellets
6:50 AM33.8 °F33.8 °F100 %29.68 in3.1 miSouth (190°)6.9 mphSnowLight Snow
7:00 AM33.0 °F33.0 °F100 %29.71 in15.0 miSouth (190°)8.9 mphSnowLight Snow
7:20 AM33.8 °F33.8 °F100 %29.65 in6.2 miSouth (180°)6.9 mphLight Drizzle
7:50 AM33.8 °F33.8 °F100 %29.65 in1.7 miSouth (180°)10.4 mphOvercast
8:00 AM33.0 °F33.0 °F100 %29.68 in1.0 miSouth (190°)8.9 mphLight Freezing Rain
8:20 AM33.8 °F33.8 °F100 %29.62 in2.5 miSouth (190°)10.4 mphOvercast
8:50 AM33.8 °F33.8 °F100 %29.62 inSSW (200°)9.2 mphOvercast
9:00 AM35.0 °F35.0 °F100 %29.67 in2.0 miSSW (200°)8.9 mphMist
9:20 AM35.6 °F35.6 °F100 %29.62 in1.3 miSSW (210°)10.4 mphOvercast
9:50 AM37.4 °F37.4 °F100 %29.62 in1.6 miSW (220°)12.7 mphOvercast
10:20 AM37.4 °F37.4 °F100 %29.59 inWSW (250°)11.5 mphOvercast
10:50 AM39.2 °F39.2 °F100 %29.59 in6.2 miWSW (250°)12.7 mphOvercast
11:00 AM40.0 °F40.0 °F99 %29.63 in8.0 miWSW (250°)13.4 mphOvercast
11:20 AM41.0 °F41.0 °F100 %29.59 in6.2 miWSW (250°)13.8 mphOvercast
11:50 AM41.0 °F41.0 °F100 %29.59 in6.2 miWSW (250°)12.7 mphOvercast
12:00 PM42.0 °F42.0 °F98 %29.63 in14.0 miWSW (250°)11.2 mphOvercast
12:20 PM42.8 °F42.8 °F100 %29.59 in6.2 miWSW (250°)12.7 mphOvercast
12:50 PM42.8 °F42.8 °F100 %29.59 in6.2 miWest (260°)13.8 mphOvercast
1:00 PM43.0 °F42.0 °F94 %29.62 in14.0 miWest (260°)13.4 mphOvercast
1:20 PM42.8 °F41.0 °F93 %29.59 in6.2 miWSW (250°)13.8 mphOvercast
1:50 PM42.8 °F41.0 °F93 %29.59 in6.2 miWest (260°)15.0 mphOvercast
2:00 PM43.0 °F41.0 °F88 %29.63 in16.0 miWest (270°)15.7 mphMostly Cloudy
2:20 PM42.8 °F41.0 °F93 %29.59 in6.2 miWest (260°)16.1 mphOvercast
2:50 PM42.8 °F39.2 °F87 %29.59 in6.2 miWest (270°)16.1 mphMostly Cloudy
3:00 PM42.0 °F39.0 °F85 %29.65 in12.0 miWest (270°)20.1 mphPartly Cloudy
3:20 PM41.0 °F39.2 °F93 %29.62 in6.2 miWest (270°)19.6 mphPartly Cloudy
3:50 PM41.0 °F37.4 °F87 %29.62 in6.2 miWest (280°)19.6 mph34.5 mph
4:20 PM41.0 °F37.4 °F87 %29.65 in6.2 miWest (270°)16.1 mph
4:50 PM41.0 °F37.4 °F87 %29.65 in6.2 miWest (280°)16.1 mph
5:00 PM41.0 °F37.0 °F79 %29.70 in22.0 miWest (280°)15.7 mph
5:20 PM41.0 °F35.6 °F81 %29.68 in6.2 miWest (280°)17.3 mph
5:50 PM41.0 °F35.6 °F81 %29.68 in6.2 miWest (280°)15.0 mph
6:00 PM41.0 °F35.0 °F72 %29.73 in28.0 miWNW (290°)15.7 mph
6:20 PM41.0 °F35.6 °F81 %29.71 inWNW (290°)17.3 mphClear
6:50 PM41.0 °F35.6 °F81 %29.71 inWest (280°)18.4 mphClear
7:00 PM40.0 °F35.0 °F76 %29.77 in28.0 miWest (280°)15.7 mph
7:20 PM39.2 °F35.6 °F87 %29.74 inWest (270°)17.3 mphClear
7:50 PM39.2 °F33.8 °F81 %29.77 inWest (280°)17.3 mphClear
8:00 PM40.0 °F34.0 °F73 %29.81 in25.0 miWest (280°)15.7 mph
8:20 PM39.2 °F33.8 °F81 %29.77 inWNW (290°)13.8 mph26.5 mphClear
8:50 PM39.2 °F33.8 °F81 %29.77 inWNW (290°)10.4 mphClear
9:00 PM39.0 °F34.0 °F74 %29.82 in31.0 miWest (280°)13.4 mph
9:20 PM39.2 °F33.8 °F81 %29.80 inWest (270°)12.7 mphClear
9:50 PM39.2 °F33.8 °F81 %29.80 inWest (280°)18.4 mphClear
10:20 PM39.2 °F33.8 °F81 %29.83 inWest (280°)17.3 mphClear
10:50 PM39.2 °F33.8 °F81 %29.83 inWest (280°)17.3 mphClear
11:00 PM39.0 °F34.0 °F74 %29.89 in22.0 miWest (280°)15.7 mph
11:20 PM39.2 °F33.8 °F81 %29.86 inWest (270°)15.0 mphClear
11:50 PM39.2 °F33.8 °F81 %29.86 inWest (280°)16.1 mphClear
Hourly data recorded from ESGJ, located miles away from Jonkoping, Sweden







STORIES FROM OUR PARTNERS